Weather History for Walterboro, SC

Change the Weather History Date:

Monday, December 19, 2011

  Actual Average Record
Temperature  
Mean Temperature 50 °F -  
Max Temperature 69 °F 60 °F 69 °F (2011)
Min Temperature 32 °F 34 °F 28 °F (2013)
Degree Days  
Heating Degree Days 14    
Moisture  
Dew Point 42 °F    
Average Humidity 76    
Maximum Humidity 100    
Minimum Humidity 43    
Precipitation  
Precipitation 0.00 in - - ()
Sea Level Pressure  
Sea Level Pressure 30.32 in    
Wind  
Wind Speed 2 mph (SSE)    
Max Wind Speed 12 mph    
Max Gust Speed 17 mph    
Visibility 10 miles    
Events      
Averages and records for this station are not official NWS values.
T = Trace of Precipitation, MM = Missing Value Source: NWS Daily Summary

Daily Weather History Graph

Daily Weather History Graph

Search for Another Location

Airport:

Trip Planner

Search our weather history database for the weather conditions in past years. The results will help you decide how hot, cold, wet, or windy it might be!

Date:

Astronomy

Dec. 19, 2011 Rise Set
Actual Time 7:20 AM EST 5:19 PM EST
Civil Twilight 6:52 AM EST 5:46 PM EST
Nautical Twilight 6:21 AM EST 6:17 PM EST
Astronomical Twilight 5:51 AM EST 6:47 PM EST
Moon 1:40 AM EST (12/19) 1:06 PM EST (12/19)
Length of Visible Light 10h 53m
Length of Day
9h 58m
Waning Crescent, 31% of the Moon is Illuminated
Dec 19
Waning Crescent
Dec 24
New
Jan 1
First Quarter
Jan 9
Full
Jan 16
Last Quarter

Hourly Weather History & Observations

Time (EST) Temp. Dew Point Humidity Pressure Visibility Wind Dir Wind Speed Gust Speed Precip Events Conditions
12:15 AM 35.6 °F 33.8 °F 93% 30.37 in 10.0 mi Calm Calm - N/A   Clear
1:35 AM 35.6 °F 33.8 °F 93% 30.35 in 10.0 mi Calm Calm - N/A   Clear
2:15 AM 33.8 °F 32.0 °F 93% 30.35 in 10.0 mi Calm Calm - N/A   Clear
2:35 AM 35.6 °F 32.0 °F 87% 30.35 in 10.0 mi Calm Calm - N/A   Clear
2:55 AM 33.8 °F 32.0 °F 93% 30.35 in 10.0 mi Calm Calm - N/A   Clear
3:15 AM 33.8 °F 32.0 °F 93% 30.35 in 10.0 mi Calm Calm - N/A   Clear
3:35 AM 33.8 °F 32.0 °F 93% 30.34 in 10.0 mi Calm Calm - N/A   Clear
3:55 AM 33.8 °F 32.0 °F 93% 30.34 in 10.0 mi Calm Calm - N/A   Clear
4:15 AM 33.8 °F 32.0 °F 93% 30.34 in 10.0 mi Calm Calm - N/A   Clear
4:35 AM 33.8 °F 32.0 °F 93% 30.34 in 10.0 mi Calm Calm - N/A   Clear
4:55 AM 33.8 °F 32.0 °F 93% 30.34 in 10.0 mi Calm Calm - N/A   Clear
5:15 AM 32.0 °F 32.0 °F 100% 30.33 in 10.0 mi Calm Calm - N/A   Clear
5:35 AM 32.0 °F 32.0 °F 100% 30.33 in 10.0 mi Calm Calm - N/A   Clear
5:55 AM 32.0 °F 32.0 °F 100% 30.34 in 10.0 mi Calm Calm - N/A   Clear
6:15 AM 32.0 °F 32.0 °F 100% 30.35 in 10.0 mi Calm Calm - N/A   Clear
6:35 AM 32.0 °F 32.0 °F 100% 30.36 in 10.0 mi Calm Calm - N/A   Clear
6:55 AM 32.0 °F 32.0 °F 100% 30.36 in 10.0 mi Calm Calm - N/A   Clear
7:15 AM 32.0 °F 30.2 °F 93% 30.36 in 10.0 mi Calm Calm - N/A   Clear
7:35 AM 32.0 °F 32.0 °F 100% 30.37 in 10.0 mi Calm Calm - N/A   Clear
7:55 AM 33.8 °F 32.0 °F 93% 30.37 in 10.0 mi Calm Calm - N/A   Clear
8:15 AM 35.6 °F 33.8 °F 93% 30.37 in 10.0 mi Calm Calm - N/A   Clear
8:35 AM 42.8 °F 39.2 °F 87% 30.38 in 10.0 mi Calm Calm - N/A   Clear
8:55 AM 50.0 °F 37.4 °F 62% 30.38 in 10.0 mi East 4.6 mph - N/A   Clear
9:15 AM 51.8 °F 37.4 °F 58% 30.38 in 10.0 mi ESE 4.6 mph - N/A   Clear
9:35 AM 53.6 °F 39.2 °F 58% 30.38 in 10.0 mi ESE 4.6 mph - N/A   Clear
9:55 AM 55.4 °F 39.2 °F 54% 30.38 in 10.0 mi ESE 6.9 mph - N/A   Clear
10:15 AM 59.0 °F 41.0 °F 51% 30.38 in 10.0 mi ESE 5.8 mph - N/A   Clear
10:55 AM 62.6 °F 41.0 °F 45% 30.37 in 10.0 mi ESE 9.2 mph - N/A   Clear
11:15 AM 64.4 °F 42.8 °F 45% 30.37 in 10.0 mi SE 5.8 mph - N/A   Clear
11:35 AM 64.4 °F 42.8 °F 45% 30.36 in 10.0 mi South 5.8 mph - N/A   Clear
11:55 AM 66.2 °F 44.6 °F 46% 30.35 in 10.0 mi SSE 5.8 mph - N/A   Clear
12:15 PM 68.0 °F 44.6 °F 43% 30.34 in 10.0 mi SSE 8.1 mph - N/A   Clear
12:35 PM 68.0 °F 44.6 °F 43% 30.33 in 10.0 mi South 6.9 mph - N/A   Clear
12:55 PM 68.0 °F 46.4 °F 46% 30.32 in 10.0 mi South 9.2 mph - N/A   Clear
1:15 PM 68.0 °F 46.4 °F 46% 30.31 in 10.0 mi South 8.1 mph - N/A   Clear
1:35 PM 69.8 °F 46.4 °F 43% 30.30 in 10.0 mi South 8.1 mph 17.3 mph N/A   Clear
1:55 PM 68.0 °F 48.2 °F 49% 30.29 in 10.0 mi South 9.2 mph - N/A   Scattered Clouds
2:35 PM 69.8 °F 48.2 °F 46% 30.28 in 10.0 mi South 11.5 mph - N/A   Mostly Cloudy
2:55 PM 69.8 °F 48.2 °F 46% 30.28 in 10.0 mi South 5.8 mph 9.2 mph N/A   Scattered Clouds
3:15 PM 68.0 °F 50.0 °F 52% 30.28 in 10.0 mi South 10.4 mph - N/A   Scattered Clouds
3:55 PM 68.0 °F 50.0 °F 52% 30.27 in 10.0 mi SSW 10.4 mph - N/A   Mostly Cloudy
4:15 PM 68.0 °F 50.0 °F 52% 30.27 in 10.0 mi South 9.2 mph - N/A   Scattered Clouds
4:35 PM 66.2 °F 50.0 °F 56% 30.27 in 10.0 mi South 8.1 mph - N/A   Clear
4:55 PM 64.4 °F 50.0 °F 59% 30.27 in 10.0 mi SSE 5.8 mph - N/A   Clear
5:15 PM 62.6 °F 50.0 °F 63% 30.27 in 10.0 mi SSE 5.8 mph - N/A   Clear
5:55 PM 60.8 °F 51.8 °F 72% 30.28 in 10.0 mi SE 3.5 mph - N/A   Clear
6:15 PM 60.8 °F 51.8 °F 72% 30.28 in 10.0 mi SE 3.5 mph - N/A   Clear
6:35 PM 57.2 °F 51.8 °F 82% 30.28 in 10.0 mi SE 3.5 mph - N/A   Clear
6:55 PM 57.2 °F 50.0 °F 77% 30.28 in 10.0 mi SE 3.5 mph - N/A   Clear
7:15 PM 55.4 °F 50.0 °F 82% 30.28 in 10.0 mi Calm Calm - N/A   Clear
7:35 PM 55.4 °F 50.0 °F 82% 30.29 in 10.0 mi SE 3.5 mph - N/A   Clear
7:55 PM 53.6 °F 50.0 °F 88% 30.29 in 10.0 mi Calm Calm - N/A   Clear
8:35 PM 51.8 °F 48.2 °F 88% 30.29 in 10.0 mi SE 3.5 mph - N/A   Clear
8:55 PM 51.8 °F 50.0 °F 94% 30.29 in 10.0 mi SE 3.5 mph - N/A   Clear
9:15 PM 51.8 °F 50.0 °F 94% 30.29 in 10.0 mi SE 3.5 mph - N/A   Clear
9:35 PM 53.6 °F 50.0 °F 88% 30.28 in 10.0 mi Calm Calm - N/A   Clear
9:55 PM 51.8 °F 50.0 °F 94% 30.28 in 10.0 mi SE 3.5 mph - N/A   Clear
10:15 PM 51.8 °F 50.0 °F 94% 30.28 in 10.0 mi SE 3.5 mph - N/A   Clear
10:55 PM 51.8 °F 50.0 °F 94% 30.27 in 10.0 mi Calm Calm - N/A   Clear
11:15 PM 50.0 °F 48.2 °F 94% 30.27 in 10.0 mi Calm Calm - N/A   Clear
11:35 PM 50.0 °F 48.2 °F 94% 30.26 in 10.0 mi Calm Calm - N/A   Clear
11:55 PM 50.0 °F 46.4 °F 87% 30.26 in 10.0 mi Calm Calm - N/A   Clear